Location: Vancouver
(49.2500°N, 123.1330°W)
Time: 06:49:50
(UTC-07:00)

YAOGAN 6 - Visible Passes

Search period start: 28 March 2017 00:00
Search period end: 07 April 2017 00:00
Orbit: 470 x 508 km, 97.2° (Epoch: 26 March)

Date Brightness Start Highest point End Pass type
(mag) Time Alt. Az. Time Alt. Az. Time Alt. Az.
28 Mar 2.5 21:33:14 47° SSE 21:34:12 75° ENE 21:37:57 10° N visible
28 Mar 5.7 23:07:42 10° W 23:08:16 10° W 23:08:49 10° WNW visible
29 Mar 3.1 21:09:57 29° ESE 21:11:20 41° ENE 21:14:52 10° N visible
29 Mar 5.0 22:44:24 17° WSW 22:45:05 18° W 22:47:42 10° NW visible
30 Mar 3.9 20:46:41 17° ESE 20:48:32 24° ENE 20:51:36 10° NNE visible
30 Mar 4.2 22:21:08 27° WSW 22:21:59 30° W 22:25:20 10° NNW visible
31 Mar 4.5 20:23:37 10° E 20:25:47 15° ENE 20:27:59 10° NNE visible
31 Mar 3.2 21:57:52 39° SSW 21:58:57 55° W 22:02:39 10° NNW visible
01 Apr 2.5 21:34:36 37° SSE 21:35:59 80° ENE 21:39:45 10° N visible
02 Apr 3.1 21:11:19 24° SE 21:13:06 43° ENE 21:16:41 10° N visible
02 Apr 5.1 22:45:46 15° WSW 22:46:53 17° W 22:49:24 10° NW visible
03 Apr 3.9 20:48:02 15° ESE 20:50:17 25° ENE 20:53:25 10° N visible
03 Apr 4.4 22:22:30 23° SW 22:23:46 29° W 22:27:04 10° NNW visible
04 Apr 4.5 20:25:15 10° E 20:27:33 16° ENE 20:29:50 10° NNE visible
04 Apr 3.3 21:59:13 31° SSW 22:00:44 52° W 22:04:23 10° NNW visible
05 Apr 2.5 21:35:57 29° SSE 21:37:46 85° ENE 21:41:31 10° NNW visible
06 Apr 3.0 21:12:41 21° SE 21:14:51 46° ENE 21:18:27 10° N visible
06 Apr 5.2 22:47:07 13° WSW 22:48:40 16° W 22:51:03 10° NW visible
